Regional Weather Roundup
Issued by NWS Mt. Holly, NJ

Home | Current Version | Previous Version | Text Only | Print | Product List | Glossary On
Versions: 1 2 3 4 5 6 7 8 9 10 11 12 13 14 15 16 17 18 19 20 21 22 23 24 25 26 27 28 29 30 31 32 33 34 35 36 37 38 39 40 41 42 43 44 45 46 47 48 49 50
000
ASUS41 KPHI 240612
RWRPHI

REGIONAL WEATHER ROUNDUP
NATIONAL WEATHER SERVICE MOUNT HOLLY NJ
200 AM EDT FRI MAR 24 2017

NOTE:  "FAIR" INDICATES FEW OR NO CLOUDS BELOW 12,000 FEET WITH NO
SIGNIFICANT WEATHER AND/OR OBSTRUCTIONS TO VISIBILITY.

 * = STATION DOES NOT REPORT PRECIPITATION (E.G. RAIN, SNOW, ETC.)
        OR FOG.

NJZ015>026-240700-
SOUTHERN NEW JERSEY

CITY           SKY/WX    TMP DP  RH WIND       PRES   REMARKS
POMONA         CLEAR     32  22  66 S3        30.55S
6HR MIN TEMP:  32; 6HR MAX TEMP:  40;

WILDWOOD*      CLEAR     35  29  78 SW7       30.56F WCI  29
MILLVILLE      CLEAR     23  20  88 CALM      30.56R
WRIGHTSTOWN    CLEAR     27  18  68 SW6       30.52R WCI  21
MOUNT HOLLY    CLEAR     29  19  66 CALM      30.56R
TRENTON        CLEAR     33  15  47 CALM      30.53R
6HR MIN TEMP:  31; 6HR MAX TEMP:  39;


$$
NJZ001>014-240700-
NORTHERN NEW JERSEY

CITY           SKY/WX    TMP DP  RH WIND       PRES   REMARKS
SUSSEX         CLEAR     22  16  78 SW3       30.49S
ANDOVER*         N/A     23  16  74 CALM      30.49S
MORRISTOWN     CLEAR     23  19  86 CALM      30.52S
NEWARK         PTCLDY    35  21  56 S3        30.52F
TETERBORO      CLEAR     31  21  66 CALM      30.51F
CALDWELL       CLEAR     27  14  58 CALM      30.52F
SOMERVILLE     CLEAR     23  17  78 CALM      30.52R
ALLAIRE*       CLEAR     30  14  51 SW7       30.54S WCI  23
TOMS RIVER*    CLEAR     23  15  71 CALM      30.55S

$$
PAZ043-044-047-054-055-060>062-066>071-240700-
EASTERN PENNSYLVANIA

CITY           SKY/WX    TMP DP  RH WIND       PRES   REMARKS
PHILADELPHIA   PTCLDY    34  24  67 SW5       30.56R WCI  30
6HR MIN TEMP:  33; 6HR MAX TEMP:  43;

NORTH PHILA    CLEAR     34  21  59 SW6       30.56R WCI  29
BLUE BELL*     CLEAR     30  21  69 S5        30.53R WCI  25
QUAKERTOWN*    CLEAR     23  19  86 CALM      30.52R
PERKASIE*      FAIR      27  14  59 SW3       30.53R
POTTSTOWN      CLEAR     26  14  60 CALM      30.54R
LANCASTER      CLOUDY    30  17  58 E5        30.49F WCI  25
COATESVILLE    CLOUDY    32  10  40 S5        30.52S WCI  27
READING        CLOUDY    33  16  49 S6        30.49S WCI  28
6HR MIN TEMP:  31; 6HR MAX TEMP:  40;

ALLENTOWN      CLEAR     26  15  63 NW3       30.51R
6HR MIN TEMP:  24; 6HR MAX TEMP:  39;

MOUNT POCONO   CLOUDY    23   7  50 S6        30.42R WCI  16
6HR MIN TEMP:  17; 6HR MAX TEMP:  28;

HAZLETON       CLEAR     30  10  43 SE7       30.44S WCI  23
LEHIGHTON      FAIR      21  19  93 CALM      30.51S
WILKES BARRE   CLEAR     31  12  45 CALM      30.44R

$$
DEZALL-MDZ008-012-015-019-020-240700-
DELAWARE AND EASTERN MARYLAND

CITY           SKY/WX    TMP DP  RH WIND       PRES   REMARKS
WILMINGTON     CLEAR     33  19  56 S3        30.56R
6HR MIN TEMP:  33; 6HR MAX TEMP:  40;

DOVER          CLEAR     30  23  74 S5        30.55R WCI  25
GEORGETOWN     CLEAR     32  25  75 SW6       30.56S WCI  26
6HR MIN TEMP:  29; 6HR MAX TEMP:  36;

EASTON         CLEAR     33  22  64 S3        30.60R
ABERDEEN       CLEAR     26  19  76 CALM      30.54S
PATUXENT       CLEAR     36  30  79 S6        30.55S WCI  31
OCEAN CITY     CLEAR     38  28  67 S6        30.56F WCI  33
WALLOPS ISLAND CLEAR     35  28  75 S9        30.57F WCI  28
CAMBRIDGE      CLEAR     32  28  86 SE5       30.57R WCI  27
SALISBURY      CLEAR     30  25  81 SE3       30.55F

$$
PAZ001-021-NYZ056-072-MDZ011-DCZ001-240700-
OTHER NEARBY LOCATIONS

CITY           SKY/WX    TMP DP  RH WIND       PRES   REMARKS
HARRISBURG     PTCLDY    36  22  56 S7        30.48F WCI  30
STATE COLLEGE  CLOUDY    34  10  36 SW5       30.36F WCI  30
WILLIAMSPORT   PTCLDY    33  15  47 E7        30.42F WCI  27
BINGHAMTON     CLOUDY    29   7  39 S9        30.35S WCI  20
NEW YORK CITY  CLEAR     37  18  46 S3        30.53F
BALTIMORE      PTCLDY    34  15  46 CALM      30.52S
WASHINGTON DC  CLEAR     38  22  52 S15       30.53S WCI  29

$$



USA.gov is the U.S. government's official web portal to all federal, state and local government web resources and services.